Location: Wellington
(33.5382°N, 81.9776°W)
Time: 06:02:40
(UTC+00:00)

Daily predictions for brighter satellites

Satellite Brightness Start Highest point End
(mag) Time Altitude Azimuth Time Altitude Azimuth Time Altitude Azimuth
UNK 4.5 22:49:18 10° N 22:53:50 58° WNW 22:58:20 10° SSW
SAR-Lupe-3 4.2 22:52:54 10° N 22:55:35 66° WNW 22:58:14 10° SSW
SKYMED 2 4.3 22:53:53 10° NE 22:57:46 31° E 23:01:38 10° SSE
SMAP 3.0 22:54:30 10° SSE 22:59:08 77° ENE 23:03:47 10° N
Cosmos 1908 Rocket 3.7 22:54:56 10° S 22:59:10 52° E 23:03:27 10° NNE
COSMO-SKYMED 1 3.7 22:56:22 10° NE 22:59:34 22° E 23:02:46 10° SSE
Cosmos 1867 4.2 22:55:09 10° SW 23:00:29 60° WNW 23:05:53 10° NNE
Cosmos 1300 Rocket 4.3 23:00:33 10° SSE 23:04:26 31° E 23:08:18 10° NNE
Iridium 4 Rocket 3.8 23:00:39 10° S 23:06:19 84° W 23:11:37 10° N
IRS-1C 4.1 23:06:00 10° SSE 23:11:18 83° ENE 23:16:38 10° NNW
Cosmos 1459 Rocket 4.3 23:05:16 10° SSW 23:11:25 72° W 23:17:42 10° N
Delta 2 Rocket 3.1 23:07:50 10° WSW 23:11:52 85° N 23:15:13 14° ENE
Cosmos 1864 Rocket 4.4 23:06:01 10° S 23:12:08 83° E 23:18:17 10° N
Cosmos 1603 3.7 23:06:36 10° NNW 23:12:13 61° ENE 23:17:45 10° SSE
Cosmos 2221 Rocket 3.8 23:08:31 10° N 23:12:53 50° E 23:17:12 10° SSE
Landsat 7 3.7 23:09:22 10° SSE 23:14:00 76° ENE 23:18:38 10° N
BREEZE-M DEB (TANK) 2.3 23:14:02 10° WSW 23:16:06 62° NW 23:19:53 10° NE
Cosmos 1441 Rocket 4.2 23:14:00 10° NNE 23:16:31 19° ENE 23:19:01 10° SE
Cosmos 1943 4.1 23:12:49 10° NNW 23:18:16 53° WSW 23:23:43 10° S
Cosmos 1725 Rocket 4.0 23:15:10 10° S 23:21:23 89° ESE 23:27:41 10° N
Cosmos 1302 Rocket 3.9 23:17:00 10° NNW 23:22:14 80° ENE 23:27:27 10° SSE
AQUARIUS 4.0 23:20:53 10° SSE 23:25:17 83° ENE 23:29:42 10° N
CZ-2D R/B 3.6 23:22:12 10° S 23:25:18 54° W 23:28:25 10° NNW
Cosmos 2084 Rocket 4.3 23:22:39 10° S 23:26:17 29° ESE 23:28:27 19° ENE
Cosmos 1802 Rocket 4.4 23:22:22 10° SSW 23:28:43 71° W 23:35:08 10° N
NOSS 3-4 (A) 4.4 23:24:26 10° NNW 23:31:05 40° NE 23:38:40 10° ESE
NOSS 3-4 (C) 4.4 23:24:32 10° NNW 23:31:09 39° NE 23:38:42 10° ESE
Cosmos 2233 Rocket 3.9 23:26:41 10° S 23:32:53 74° E 23:39:11 10° N
PSLV R/B 4.0 23:33:20 10° SE 23:37:02 34° ENE 23:40:43 10° N
SL-12 R/B(2) 4.5 23:30:48 10° S 23:37:41 41° ESE 23:44:54 12° NE
Cosmos 1992 Rocket 3.9 23:35:39 10° N 23:40:47 61° ENE 23:45:53 10° SSE
Helios 1A Rocket 2.5 23:40:31 10° N 23:43:54 75° WNW 23:47:15 10° SSW
Cosmos 1269 Rocket 4.0 23:38:49 10° S 23:43:59 63° ESE 23:49:10 10° NNE
Cosmos 2278 Rocket 3.6 23:40:11 10° SE 23:43:17 19° ESE 23:43:17 19° ESE
Resurs 1-3 3.8 23:43:01 10° SE 23:47:03 43° ENE 23:51:08 10° N
ATLAS CENTAUR R/B 2.8 23:49:11 10° WSW 23:52:12 28° WNW 23:55:17 10° N
CZ-4C R/B 4.1 23:49:42 10° W 23:52:30 17° NW 23:55:42 10° N
Tsikada Rocket 3.9 23:46:31 10° N 23:52:57 75° E 23:59:18 10° S
USA 281 4.1 23:52:38 25° ENE 23:53:28 26° ENE 23:58:41 10° N
